Vertical_Velocity
1 1 -1 -1 2 0 -1 -1 0 1 2 1 2 1 1 -0 -0 1 -1 1 -0 -1 -0 1 -1 -1 -2 -1 0 0 -0 -1 -0 -0 1 0 1 0 -1 -2 -1 -2 -1
1 1 -1 -2 1 -1 1 -1 -1 0 2 1 1 1 1 0 -0 0 -0 -0 1 -0 -1 0 1 -0 -1 -2 -2 -0 1 1 -1 -1 -0 0 0 0 0 -0 0 1 -0
4 3 3 1 1 0 -0 -1 -1 -1 -1 -0 0 1 1 0 1 1 0 1 -0 -0 -1 -1 1 -0 -1 -0 -1 -2 -0 1 1 0 -1 -1 -0 -0 0 -0 -1 -0 -0
-1 3 2 2 -0 1 -2 -1 -2 -0 -0 -0 -0 0 2 1 0 1 0 -1 0 -1 4 0 2 0 -1 -1 -0 -1 -2 -1 1 1 1 -1 -1 -0 0 0 0 -0 -0
0 0 1 2 1 2 -1 -2 -1 -1 -2 -1 0 1 -0 1 2 1 0 1 -0 3 4 -1 -0 -1 -1 0 0 0 -0 -1 -0 0 0 0 -1 -2 -1 0 1 1 1
-2 -2 0 1 2 0 -0 -1 0 0 0 -2 -2 0 -1 1 -0 -2 -0 2 3 3 4 -0 -1 -2 -1 -1 -1 0 0 -0 -0 0 -0 0 1 1 -0 -0 1 0 -0
-2 -4 0 1 0 1 -1 -5 -2 -1 2 -1 -1 -1 0 -1 4 2 -1 0 1 4 2 0 1 0 -2 -2 -0 -1 1 -1 -0 -1 -0 -0 0 1 1 0 -1 0 0
-2 2 1 -0 1 1 2 3 -0 -4 0 1 2 -0 1 1 -0 2 3 0 -1 -2 3 1 2 1 1 -1 -3 -1 -0 1 1 -0 -1 -1 -1 -0 -1 0 1 0 0
2 1 5 6 -0 3 4 1 3 3 -1 -0 -3 1 -1 -2 -1 1 0 5 2 4 -1 0 0 2 1 1 -0 -3 -1 0 0 0 1 -0 -1 -1 -1 -1 -0 -0 -0
-2 1 -1 4 -0 3 1 -1 1 4 2 1 0 -0 -1 -1 -0 -1 -0 1 8 7 1 0 1 1 2 2 1 1 -4 -1 0 0 0 1 2 1 -1 -1 -0 0 0
-0 0 -0 -1 4 2 -1 0 4 2 3 3 1 1 -1 -0 -2 1 1 -3 2 2 -0 -1 1 2 1 1 3 1 2 -3 -1 -0 1 -0 0 1 1 1 0 -0 -0
-0 0 0 -1 -1 -2 1 1 2 2 1 -0 -1 1 1 2 -0 -1 4 2 1 1 -1 -2 -2 -0 1 1 2 3 1 -0 -3 -2 -1 1 0 1 0 0 0 0 1
3 0 -1 2 2 3 -7 -1 3 6 2 -1 1 0 -1 1 3 -1 1 2 -0 1 -0 -0 1 0 0 -0 1 1 2 4 1 -2 -3 -2 -1 -1 -0 0 1 -0 -0
-1 0 -0 2 1 2 1 -2 -2 10 2 -1 1 0 0 0 2 1 3 2 4 2 4 0 1 0 2 -0 0 -1 0 1 2 1 1 -2 -2 -1 0 -0 1 1 1
-2 -1 1 0 2 -0 4 3 -3 0 1 -1 -0 1 0 1 6 5 3 5 1 4 2 2 3 3 -1 2 4 -1 -2 -2 1 1 1 2 1 -2 -2 -0 -0 0 -1
1 3 0 -1 3 -0 1 1 3 -4 1 6 4 5 2 2 2 2 7 4 9 1 3 2 6 1 1 0 0 3 1 1 -2 -0 -0 1 2 0 -0 -2 0 -1 0
-1 -0 -3 -2 -1 2 2 -0 -0 2 9 -8 -3 4 -3 -2 -1 2 -0 -0 4 1 1 1 8 -0 -5 -2 -0 -1 3 -0 1 0 -2 -1 0 1 1 0 2 1 0
-0 -4 -1 -3 1 3 1 1 -1 13 -14 -6 -11 -7 -6 -2 -2 -2 3 1 -0 -1 -1 -2 -6 17 1 -11 2 1 6 -0 -1 0 -1 -2 -1 -0 1 2 -1 1 0
2 5 0 -6 -7 1 2 4 1 6 -4 -2 0 -35 -3 -1 -2 -3 0 1 3 1 0 1 -5 1 10 13 -1 3 3 4 4 1 3 -1 1 0 -1 2 1 -1 1
1 3 2 -1 -6 -3 5 3 5 -6 7 -13 6 15 -12 -4 -2 1 -3 -3 -1 -2 -2 -1 1 2 -7 9 -7 -16 10 1 0 -4 3 1 -4 2 1 -1 1 0 -1
-1 4 8 16 4 -6 -1 -1 -2 2 2 8 -3 5 5 -2 1 1 -4 -4 -0 2 3 2 -0 3 -3 5 13 0 -12 -7 -8 -5 4 0 2 -0 2 1 -0 0 3
-2 -9 9 8 3 -13 -4 7 3 4 -2 -4 -1 1 4 0 -2 1 -4 0 2 -0 -4 0 0 -0 1 -5 -6 17 -6 -6 -5 -9 2 -0 -2 5 -1 4 3 -1 4
-5 -2 6 4 10 -1 -14 20 -5 -2 -3 3 2 -0 -3 -5 -8 4 -3 0 -2 1 0 1 -2 2 0 3 -8 2 -2 -22 10 2 3 2 2 3 6 3 5 -1 -1
-3 1 7 2 2 1 35 17 11 6 -0 3 2 0 1 4 1 -5 -1 1 2 -1 -3 -2 1 -4 1 -3 -3 -12 -0 -3 1 -10 -0 -2 -10 -10 2 2 8 2 1
-2 4 8 15 -6 -3 1 -9 1 -1 2 5 0 1 0 -1 1 -1 1 1 4 -2 4 5 3 -4 2 11 1 3 6 4 7 -12 -5 6 6 5 3 1 10 1 7
6 3 7 12 30 19 17 -2 7 8 5 1 -3 -1 -0 4 2 2 2 0 2 1 0 4 4 3 2 -3 -3 2 -1 -4 -3 1 0 -1 1 6 6 6 1 -7 7
Height
3166 3167 3168 3169 3170 3171 3171 3171 3171 3172 3172 3172 3173 3174 3175 3176 3177 3177 3178 3179 3180 3180 3181 3182 3181 3181 3180 3180 3179 3179 3179 3179 3179 3179 3180 3181 3181 3181 3181 3181 3182 3182 3181
3164 3165 3167 3168 3169 3170 3171 3170 3171 3171 3171 3172 3173 3173 3174 3175 3175 3176 3178 3178 3180 3180 3181 3182 3182 3181 3180 3180 3180 3179 3179 3180 3180 3180 3180 3181 3181 3182 3182 3182 3182 3182 3182
3162 3163 3165 3167 3168 3169 3169 3170 3170 3170 3170 3171 3171 3172 3173 3173 3174 3175 3177 3178 3180 3180 3181 3181 3182 3181 3181 3180 3180 3180 3180 3180 3181 3181 3181 3181 3182 3182 3183 3183 3183 3183 3182
3160 3162 3164 3165 3167 3168 3169 3169 3169 3169 3169 3169 3170 3171 3172 3173 3173 3174 3176 3177 3179 3180 3180 3180 3181 3181 3181 3181 3181 3180 3180 3180 3181 3182 3182 3182 3182 3183 3184 3184 3184 3184 3183
3158 3160 3162 3164 3165 3166 3167 3168 3168 3168 3169 3169 3169 3170 3171 3171 3173 3174 3175 3176 3178 3179 3179 3180 3181 3180 3180 3181 3181 3181 3181 3181 3181 3182 3182 3183 3184 3184 3184 3184 3184 3184 3184
3156 3158 3160 3162 3163 3164 3165 3165 3166 3167 3167 3168 3168 3168 3170 3171 3172 3173 3175 3175 3176 3178 3179 3181 3182 3181 3180 3180 3181 3181 3181 3181 3181 3182 3182 3183 3183 3184 3184 3183 3183 3183 3183
3154 3156 3157 3158 3160 3161 3162 3163 3163 3163 3165 3166 3166 3167 3168 3169 3170 3172 3174 3175 3175 3177 3178 3179 3180 3181 3180 3180 3180 3180 3180 3181 3181 3182 3182 3182 3182 3183 3183 3183 3183 3183 3182
3150 3152 3153 3155 3156 3157 3158 3159 3160 3161 3161 3163 3164 3165 3166 3167 3168 3169 3170 3172 3174 3175 3176 3177 3178 3179 3179 3179 3179 3179 3180 3180 3181 3181 3181 3181 3182 3182 3182 3182 3182 3181 3181
3148 3148 3150 3151 3153 3154 3154 3155 3157 3158 3159 3160 3161 3162 3164 3165 3166 3167 3168 3169 3171 3172 3175 3176 3176 3177 3177 3178 3179 3179 3179 3179 3180 3180 3181 3181 3181 3182 3181 3181 3180 3180 3181
3144 3146 3146 3147 3149 3150 3152 3153 3153 3154 3156 3158 3158 3160 3161 3162 3164 3165 3166 3167 3169 3170 3172 3174 3175 3175 3175 3176 3177 3178 3178 3178 3178 3179 3179 3179 3180 3181 3181 3180 3180 3179 3179
3140 3141 3142 3143 3144 3145 3147 3148 3149 3151 3152 3153 3155 3156 3157 3159 3160 3163 3164 3165 3167 3168 3169 3170 3172 3173 3174 3174 3175 3176 3176 3177 3177 3177 3177 3178 3178 3178 3179 3179 3179 3178 3178
3134 3136 3137 3138 3139 3140 3142 3144 3145 3146 3147 3149 3150 3151 3153 3155 3157 3158 3160 3162 3164 3165 3166 3168 3169 3171 3172 3172 3173 3173 3174 3175 3175 3176 3176 3176 3176 3176 3177 3177 3177 3177 3177
3126 3129 3131 3133 3134 3136 3137 3139 3140 3141 3143 3144 3146 3147 3149 3150 3152 3154 3156 3158 3160 3162 3163 3164 3166 3167 3169 3170 3170 3171 3171 3172 3173 3174 3174 3174 3174 3174 3173 3174 3174 3174 3175
3120 3122 3124 3126 3128 3131 3133 3135 3135 3137 3138 3140 3141 3143 3144 3145 3147 3149 3151 3153 3156 3158 3159 3161 3162 3163 3165 3166 3167 3168 3169 3169 3170 3171 3171 3172 3172 3171 3171 3171 3171 3172 3172
3113 3114 3116 3118 3122 3124 3127 3128 3130 3131 3131 3134 3136 3138 3139 3141 3142 3144 3146 3148 3150 3153 3155 3156 3157 3158 3160 3161 3163 3164 3166 3167 3167 3167 3168 3169 3169 3169 3169 3169 3169 3169 3169
3105 3107 3109 3111 3114 3116 3120 3122 3125 3126 3125 3128 3128 3132 3135 3137 3138 3140 3141 3143 3145 3147 3150 3151 3152 3153 3155 3157 3158 3160 3161 3162 3163 3164 3164 3165 3165 3166 3166 3166 3166 3166 3167
3093 3098 3101 3103 3106 3110 3113 3115 3118 3119 3119 3117 3121 3125 3128 3133 3135 3135 3137 3139 3140 3142 3143 3144 3145 3147 3148 3150 3154 3156 3157 3158 3159 3160 3161 3161 3162 3162 3162 3163 3163 3163 3164
3081 3085 3092 3095 3098 3102 3106 3109 3112 3113 3112 3116 3116 3120 3125 3128 3129 3131 3132 3133 3134 3135 3136 3137 3139 3138 3139 3143 3147 3150 3151 3152 3153 3155 3156 3157 3157 3158 3158 3159 3159 3159 3160
3070 3073 3078 3084 3089 3095 3099 3102 3105 3106 3108 3111 3112 3113 3121 3122 3123 3124 3125 3127 3128 3128 3128 3129 3131 3134 3134 3134 3137 3141 3145 3146 3147 3148 3150 3151 3152 3153 3154 3154 3155 3155 3156
3054 3060 3067 3073 3080 3086 3091 3094 3097 3101 3103 3106 3108 3110 3113 3116 3118 3117 3118 3120 3120 3120 3121 3121 3122 3124 3127 3126 3128 3134 3135 3138 3140 3142 3144 3146 3147 3148 3149 3150 3150 3151 3151
3041 3045 3054 3063 3071 3077 3082 3087 3091 3095 3099 3099 3101 3103 3105 3108 3109 3110 3112 3112 3112 3112 3113 3113 3114 3115 3120 3119 3120 3122 3126 3129 3130 3133 3138 3140 3142 3143 3143 3145 3145 3146 3147
3034 3037 3043 3051 3060 3069 3077 3081 3084 3088 3091 3093 3095 3097 3099 3100 3103 3103 3104 3105 3105 3106 3105 3105 3106 3107 3109 3113 3114 3116 3115 3119 3121 3124 3130 3133 3135 3136 3137 3138 3139 3140 3141
3027 3032 3037 3045 3055 3060 3067 3073 3077 3080 3084 3087 3089 3090 3092 3093 3094 3095 3097 3097 3098 3098 3098 3098 3099 3099 3101 3103 3106 3105 3107 3107 3117 3121 3123 3126 3128 3129 3130 3131 3132 3134 3134
3024 3026 3031 3041 3050 3052 3058 3066 3070 3074 3078 3081 3082 3084 3086 3088 3089 3090 3090 3090 3090 3091 3090 3090 3091 3093 3093 3094 3096 3097 3099 3103 3104 3110 3114 3117 3120 3122 3124 3124 3125 3126 3127
3020 3021 3027 3038 3044 3051 3056 3061 3065 3068 3070 3073 3075 3076 3078 3079 3080 3081 3082 3082 3082 3083 3084 3083 3083 3084 3085 3086 3087 3090 3091 3093 3095 3098 3103 3107 3111 3114 3115 3116 3117 3117 3117
3019 3021 3027 3035 3044 3048 3052 3056 3059 3061 3063 3065 3068 3069 3071 3071 3072 3073 3074 3073 3074 3075 3075 3075 3075 3074 3075 3077 3078 3080 3080 3081 3084 3090 3093 3098 3100 3103 3105 3105 3106 3110 3110